星链-35742(STARLINK-35742)

导读

STARLINK-35742是美国SpaceX星链星座计划中的一颗卫星,于2025年10月31日发射升空。星链项目旨在构建全球卫星互联网星座,为全球偏远及网络覆盖薄弱地区提供高速网络服务,该卫星加入后将进一步扩充星链星座规模,提升星座整体服务覆盖能力与容量。

Basic Information
目录编号:
66276
目录名称:
STARLINK-35742
国际标识:
2025-247M
轨道中心:
EARTH
卫星名称:
星链-35742
卫星全名:
星链-35742(STARLINK-35742)
卫星状态:
在轨 (已飞行225 天)
发射日期:
2025-10-31 UTC
国别 :
美国 (US)
星等 :
--
Orbit Information
数据来源 国际轨道数据 AOE轨道数据
星历时间 2026-06-12T09:39:51+0800
1天前
查看轨道信息
2026-06-11T03:00:00+0800
2天前
查看轨道信息
半长轴 6853.287km 6853.345km
偏心率 0.000307 0.0001037
轨道倾角 53.157° 53.158°
近地点辐角 158.780° 73.290°
升交点赤经 113.053° 118.994°
平近点角 201.333° 84.524°
近地点 473.046km 474.497km
远地点 477.254km 475.919km
周期 94.104分钟 94.105分钟
每日圈数 15.30222 15.302024
Detailed Information
固有亮度:
5
最大亮度:
2.5
卫星平台:
Starlink V1.0
覆盖范围:
全球
运营商:
太空探索技术公司
运营商所在国:
美国
制造商(研发单位):
太空探索技术公司
制造商所在国:
美国
使用方式:
暂无
Satellite Introduction
Starlink 计划是 SpaceX 推出的全球卫星互联网项目,通过发射低轨道卫星,为全球尤其是偏远地区提供高速、低延迟的互联网服务。自 2019 年起,Starlink 已部署数千颗卫星,旨在缩小全球数字鸿沟,推动互联网普及。该项目还为军事、航空等行业提供通信支持,带来广泛经济效益。
2D Orbit Map
3D Orbit Map
Orbit Altitude Analysis Chart
Orbit Inclination Analysis Chart
Orbit Comprehensive Analysis Chart
View Comprehensive Chart